Погода в Ивановском

Россия / Костромская область     57°38′41″N   41°23′01″E
темп.,
°C
ветер,
м/с
пор.,
м/с
влажн.,
%
обл.,
%
осадки,
мм/ч
давл.,
гПа
погр.,
м
19 апреля, пн
пн1900:00+4всв4118583 0.0 1028640
03:00+2всв41177100 0.0 1029459
06:000всв51177100 0.0 1029492
09:00+4в59569 0.0 1029813
12:00+7в68465 0.0 10291465
15:00+8в684030 0.0 10291759
18:00+6в58475 0.0 10291486
21:00+3в512600 0.0 1030637
20 апреля, вт
вт2000:00+1в413661 0.0 1030507
03:00−1в413715 0.0 1030410
06:00−1в4136524 0.0 1029474
09:00+4вюв5104799 0.0 1029812
12:00+8вюв6104298 0.0 10261410
15:00+10вюв61043100 0.0 10251595
18:00+8вюв6114736 0.0 10231362
21:00+5вюв61447100 0.0 1022871
21 апреля, ср
ср2100:00+4в61551100 0.0 1018825
03:00+3в71659100 0.3 1014892
06:000в81996100 3.6 1011910
09:00+2вюв81693100 5.9 1008978
12:00+2вюв81793100 0.3 1006915
15:00+4вюв81792100 1.1 10041116
18:00+3ю71397100 0.1 10051021
21:00+3ююз61295100 0.4 10091076
22 апреля, чт
чт2200:00+3ююз51191100 0.1 1011851
03:00+3ю41188100 0.1 1013436
06:00+4ю5129285 0.1 1013545
09:00+6ююз51088100 0.1 1014929
12:00+7ююз598187 0.4 10151026
15:00+10юз597099 0.9 10161356
18:00+8юз377889 0.1 1017327
21:00+5ю3893100 0.1 1018172
23 апреля, пт
пт2300:00+5ююв299557 0.0 1018170
03:00+4ююв399651 0.0 1018183
06:00+5ююв399635 0.0 1018215
09:00+11ю5107412 0.0 1018577
12:00+15ю5105752 0.6 10171798
15:00+15ююв585741 1.3 10161861
18:00+13ююв5106683 0.4 1015619
21:00+10ююв4147723 0.5 1015482